Location: Newark
(13.6797°N, 8.5297°E)
Time: 22:00:16
(UTC+00:00)

A-11 Canister half - Pass Details

Date: 24 January 2020
Orbit: 1517 x 1683 km, 47.2° (Epoch: 19 February)

Event Time Altitude Azimuth Distance (km) Brightness Sun altitude
Rises 09:37:44 0° 282° (WNW) 4,726 11.2 45.7°
Reaches altitude 10° 09:43:05 10° 258° (WSW) 3,778 11.0 46.6°
Maximum altitude 09:47:10 13° 232° (SW) 3,540 11.0 47.2°
Drops below altitude 10° 09:51:19 10° 206° (SSW) 3,835 11.5 47.9°
Sets 09:56:55 0° 181° (S) 4,858 12.1 48.7°
